GFSNIL_sfc_temp_057.txt.gz
Temp
85 87 87 85 88 87 86 85 81 82 82 83 81 80 78 75 79 77 75 73 74 74
84 86 86 84 84 86 85 84 82 83 82 81 81 78 77 80 77 77 75 73 72 74
85 86 84 83 84 84 84 84 82 82 81 79 80 80 78 79 78 75 75 75 73 74
84 84 83 83 83 82 82 82 82 82 78 80 79 79 77 77 75 75 73 75 74 73
83 83 81 81 82 82 81 83 83 82 81 81 80 79 75 74 75 75 74 74 73 74
81 81 80 80 81 82 81 82 82 82 81 81 81 75 75 77 75 76 74 73 68 67
80 80 80 81 80 81 82 81 81 81 82 83 82 77 77 78 77 76 73 70 68 65
81 81 81 81 81 81 81 82 83 82 82 83 82 77 76 78 76 74 71 67 65 65
82 82 78 76 78 80 80 81 81 76 77 77 73 50 55 65 74 73 70 66 63 63
82 79 75 76 75 78 78 75 73 74 74 75 74 50 51 53 73 70 70 65 62 61
84 81 79 75 75 77 76 76 75 76 76 75 70 49 48 51 74 72 70 64 62 62
85 82 81 76 76 75 74 73 74 76 75 73 71 48 49 59 71 69 66 64 63 64
86 83 78 74 75 76 75 74 75 73 75 62 71 48 47 57 69 68 63 62 59 51
79 78 75 75 77 75 73 73 72 73 73 72 70 64 47 50 73 69 63 64 65 61

GFSNIL_sfc_temp_060.txt.gz
Temp
80 81 82 80 80 77 76 75 75 76 76 76 77 76 73 71 70 71 69 69 68 67
80 80 80 79 80 78 78 79 77 77 76 77 76 75 72 70 71 70 69 69 68 67
80 82 81 80 79 79 77 78 77 77 76 75 75 74 72 72 72 71 69 69 68 67
81 80 79 79 79 77 77 77 77 77 74 73 72 74 72 72 72 71 69 69 68 68
79 78 77 77 77 77 77 78 78 78 75 74 75 74 73 72 72 70 68 69 69 68
77 77 76 76 76 77 77 77 78 78 75 77 76 73 73 73 71 71 69 69 67 66
76 76 76 76 76 76 77 77 77 77 78 78 75 73 73 72 70 70 68 67 65 64
76 77 77 76 76 76 76 77 78 77 77 76 73 75 73 71 70 68 67 65 64 63
78 77 75 75 76 75 76 76 74 75 72 69 69 50 54 67 69 68 66 64 63 62
78 78 76 76 75 74 74 72 72 73 72 68 64 48 51 54 69 67 66 64 61 60
80 77 76 74 73 72 71 70 70 71 71 69 61 48 49 51 70 67 66 63 62 61
80 75 74 72 72 71 69 69 69 70 69 67 62 49 48 55 67 65 63 63 62 62
82 75 72 71 72 70 70 70 71 70 69 61 63 48 48 56 66 63 61 61 58 50
77 73 73 71 71 70 70 70 69 68 67 69 65 57 48 49 65 63 61 63 61 61

GFSNIL_sfc_temp_063.txt.gz
Temp
70 69 72 72 73 72 71 70 70 72 70 71 72 68 67 66 65 65 64 64 63 61
71 71 73 72 73 72 70 71 71 70 70 70 69 68 66 65 65 65 63 63 63 62
71 72 74 74 73 72 71 72 70 70 69 69 68 67 66 65 65 64 63 63 63 63
71 72 74 72 72 72 72 72 71 70 69 69 70 67 65 65 65 64 63 64 63 63
71 72 70 69 68 70 70 72 71 70 69 72 71 69 66 66 66 64 63 63 63 63
74 73 70 67 67 69 69 69 70 69 69 71 71 67 67 67 66 65 64 64 63 62
72 71 68 67 67 68 70 69 68 68 71 71 70 70 68 68 65 64 62 62 61 61
71 69 70 68 67 68 68 69 70 70 70 70 70 72 70 68 64 61 61 61 60 60
72 70 68 67 67 67 67 68 68 66 68 66 66 52 57 64 62 62 60 59 59 60
71 70 67 68 67 66 65 69 69 66 64 61 57 48 51 57 63 61 60 59 59 60
72 69 67 68 67 67 64 66 65 64 62 59 56 48 49 52 63 61 61 60 60 60
72 68 66 67 68 65 63 62 62 63 61 58 54 48 49 55 61 60 61 60 60 60
72 69 66 64 64 63 63 63 63 63 62 56 55 48 48 56 61 59 59 58 57 50
73 71 68 66 64 63 63 63 62 62 61 59 55 52 48 49 59 58 58 57 57 54

GFSNIL_sfc_temp_069.txt.gz
Temp
76 74 69 67 66 67 68 68 68 68 68 68 68 67 68 65 64 63 62 62 61 60
70 66 66 65 67 67 67 68 68 69 68 68 68 68 67 64 63 63 62 61 61 59
69 68 65 66 67 67 67 68 68 68 68 67 67 68 66 65 63 62 61 61 60 59
64 65 66 67 67 68 68 68 69 68 67 67 67 67 66 64 63 62 61 61 60 60
64 66 66 67 67 67 67 69 69 68 67 68 69 67 65 63 63 62 61 61 60 60
66 67 67 67 67 67 67 68 69 68 68 68 66 65 63 63 63 62 61 61 60 60
67 67 67 67 67 68 68 68 68 68 69 68 66 65 64 64 62 61 61 61 60 60
66 66 66 67 67 67 67 67 69 68 67 65 65 66 65 63 61 60 59 59 59 59
66 66 65 65 66 66 66 66 67 66 65 62 65 53 54 59 60 61 61 57 57 57
66 66 66 67 67 65 64 65 63 62 62 61 60 50 52 55 62 59 58 57 56 57
68 67 68 67 65 61 61 63 60 60 60 59 56 47 48 51 59 58 57 57 58 59
68 68 66 64 63 60 60 59 59 59 57 56 54 45 46 55 58 57 57 58 58 59
69 67 65 63 61 59 61 60 60 59 59 53 53 45 46 56 61 59 58 57 56 48
68 66 64 61 61 59 60 59 58 56 55 54 53 51 46 49 60 59 58 56 54 54

GFSNIL_sfc_temp_072.txt.gz
Temp
72 75 74 73 70 70 70 69 69 69 69 69 69 69 69 67 67 65 65 64 64 63
72 72 73 70 70 70 69 69 69 69 69 69 69 69 68 67 66 66 65 65 64 64
70 71 70 67 68 68 68 69 68 69 69 69 69 69 68 67 66 65 64 64 63 63
69 68 67 69 69 68 68 68 69 69 69 69 68 68 67 67 66 65 64 64 64 63
66 65 65 67 67 68 68 69 69 70 69 68 68 68 67 66 66 64 63 63 63 64
64 65 65 66 67 67 68 68 69 69 69 68 68 68 68 67 65 65 65 64 63 63
64 66 66 67 67 67 68 68 69 69 69 69 69 68 66 66 65 65 65 64 64 63
66 67 67 67 67 67 68 68 69 69 69 68 68 67 65 65 65 64 63 63 63 63
66 67 68 68 68 68 68 68 68 68 67 66 67 53 55 61 64 63 63 62 61 61
67 67 67 67 67 66 66 67 67 66 66 65 64 50 51 54 63 63 63 61 60 60
67 66 66 66 66 66 65 65 65 64 64 63 59 49 48 51 63 62 61 61 60 61
67 65 66 65 64 63 63 63 63 63 61 61 57 45 46 57 62 61 60 61 61 62
66 66 65 64 63 63 63 62 61 60 60 54 55 43 46 56 61 60 60 60 58 49
66 65 63 63 62 62 61 60 59 58 58 57 55 51 46 49 62 61 60 59 59 57

GFSNIL_sfc_temp_075.txt.gz
Temp
73 77 79 79 79 79 81 82 80 78 78 77 76 75 75 75 77 76 76 72 75 77
69 72 75 75 73 75 79 82 78 78 76 76 76 76 75 77 76 76 74 73 74 75
70 70 72 75 73 74 77 79 77 76 77 77 77 77 76 77 77 75 72 73 73 73
71 73 75 75 76 76 78 79 79 78 77 77 77 78 76 77 76 73 69 74 73 73
71 74 75 75 76 77 78 79 80 79 79 79 79 77 77 76 75 70 68 70 73 73
70 73 74 75 76 78 78 78 80 80 79 79 78 77 78 77 75 69 69 72 73 73
70 73 74 75 76 77 79 78 79 79 80 79 78 78 78 76 71 70 73 74 74 74
71 74 75 75 76 77 77 78 80 79 79 79 78 79 76 74 71 73 73 73 74 73
72 74 74 75 75 76 77 77 78 77 77 76 78 54 57 67 74 74 73 72 72 72
73 75 75 75 75 74 72 73 75 75 76 75 74 51 53 57 75 73 73 72 71 70
75 76 75 73 72 69 70 72 72 73 74 73 71 51 50 53 74 73 73 72 71 71
75 72 69 69 68 68 70 70 71 71 68 67 64 47 47 61 73 72 71 72 71 71
72 70 69 68 68 69 70 68 66 67 68 63 65 44 47 61 75 71 71 70 67 51
73 71 69 67 68 67 65 64 65 65 69 69 65 55 45 49 74 74 71 70 69 68